﻿測定場所 (Monitoring sites),日付 (Measurement date),時間 (Measurement time),線量率 最大値 (max) μGy/h,線量率 最小値 (min) μGy/h,線量率 平均値 (average) μGy/h,
江戸川 (Edogawa),2015-03-08,23:01～24:00,0.0638,0.0568,0.0605,
江戸川 (Edogawa),2015-03-08,22:01～23:00,0.0631,0.0567,0.0604,
江戸川 (Edogawa),2015-03-08,21:01～22:00,0.0651,0.0574,0.0610,
江戸川 (Edogawa),2015-03-08,20:01～21:00,0.0650,0.0555,0.0606,
江戸川 (Edogawa),2015-03-08,19:01～20:00,0.0642,0.0578,0.0607,
江戸川 (Edogawa),2015-03-08,18:01～19:00,0.0645,0.0563,0.0613,
江戸川 (Edogawa),2015-03-08,17:01～18:00,0.0653,0.0588,0.0618,
江戸川 (Edogawa),2015-03-08,16:01～17:00,0.0647,0.0574,0.0610,
江戸川 (Edogawa),2015-03-08,15:01～16:00,0.0641,0.0585,0.0611,
江戸川 (Edogawa),2015-03-08,14:01～15:00,0.0640,0.0578,0.0609,
江戸川 (Edogawa),2015-03-08,13:01～14:00,0.0653,0.0590,0.0619,
江戸川 (Edogawa),2015-03-08,12:01～13:00,0.0669,0.0592,0.0625,
江戸川 (Edogawa),2015-03-08,11:01～12:00,0.0648,0.0582,0.0624,
江戸川 (Edogawa),2015-03-08,10:01～11:00,0.0648,0.0570,0.0612,
江戸川 (Edogawa),2015-03-08,09:01～10:00,0.0664,0.0580,0.0627,
江戸川 (Edogawa),2015-03-08,08:01～09:00,0.0662,0.0603,0.0634,
江戸川 (Edogawa),2015-03-08,07:01～08:00,0.0686,0.0619,0.0644,
江戸川 (Edogawa),2015-03-08,06:01～07:00,0.0696,0.0587,0.0641,
江戸川 (Edogawa),2015-03-08,05:01～06:00,0.0659,0.0583,0.0614,
江戸川 (Edogawa),2015-03-08,04:01～05:00,0.0656,0.0589,0.0619,
江戸川 (Edogawa),2015-03-08,03:01～04:00,0.0683,0.0616,0.0641,
江戸川 (Edogawa),2015-03-08,02:01～03:00,0.0682,0.0603,0.0633,
江戸川 (Edogawa),2015-03-08,01:01～02:00,0.0643,0.0571,0.0612,
江戸川 (Edogawa),2015-03-08,00:01～01:00,0.0671,0.0597,0.0624,
江戸川 (Edogawa),2015-03-07,23:01～24:00,0.0669,0.0602,0.0639,
江戸川 (Edogawa),2015-03-07,22:01～23:00,0.0710,0.0627,0.0657,
江戸川 (Edogawa),2015-03-07,21:01～22:00,0.0652,0.0574,0.0619,
江戸川 (Edogawa),2015-03-07,20:01～21:00,0.0649,0.0581,0.0607,
江戸川 (Edogawa),2015-03-07,19:01～20:00,0.0655,0.0568,0.0607,
江戸川 (Edogawa),2015-03-07,18:01～19:00,0.0632,0.0578,0.0607,
江戸川 (Edogawa),2015-03-07,17:01～18:00,0.0637,0.0571,0.0606,
江戸川 (Edogawa),2015-03-07,16:01～17:00,0.0643,0.0565,0.0605,
江戸川 (Edogawa),2015-03-07,15:01～16:00,0.0633,0.0572,0.0606,
江戸川 (Edogawa),2015-03-07,14:01～15:00,0.0641,0.0565,0.0608,
江戸川 (Edogawa),2015-03-07,13:01～14:00,0.0651,0.0593,0.0618,
江戸川 (Edogawa),2015-03-07,12:01～13:00,0.0651,0.0578,0.0614,
江戸川 (Edogawa),2015-03-07,11:01～12:00,0.0649,0.0586,0.0615,
江戸川 (Edogawa),2015-03-07,10:01～11:00,0.0641,0.0572,0.0609,
江戸川 (Edogawa),2015-03-07,09:01～10:00,0.0650,0.0577,0.0609,
江戸川 (Edogawa),2015-03-07,08:01～09:00,0.0670,0.0588,0.0630,
江戸川 (Edogawa),2015-03-07,07:01～08:00,0.0699,0.0634,0.0669,
江戸川 (Edogawa),2015-03-07,06:01～07:00,0.0677,0.0594,0.0640,
江戸川 (Edogawa),2015-03-07,05:01～06:00,0.0687,0.0601,0.0648,
江戸川 (Edogawa),2015-03-07,04:01～05:00,0.0693,0.0622,0.0660,
江戸川 (Edogawa),2015-03-07,03:01～04:00,0.0707,0.0616,0.0659,
江戸川 (Edogawa),2015-03-07,02:01～03:00,0.0723,0.0642,0.0680,
江戸川 (Edogawa),2015-03-07,01:01～02:00,0.0725,0.0641,0.0687,
江戸川 (Edogawa),2015-03-07,00:01～01:00,0.0706,0.0627,0.0662,
江戸川 (Edogawa),2015-03-06,23:01～24:00,0.0689,0.0610,0.0650,
江戸川 (Edogawa),2015-03-06,22:01～23:00,0.0691,0.0611,0.0655,
江戸川 (Edogawa),2015-03-06,21:01～22:00,0.0696,0.0621,0.0661,
江戸川 (Edogawa),2015-03-06,20:01～21:00,0.0694,0.0604,0.0640,
江戸川 (Edogawa),2015-03-06,19:01～20:00,0.0656,0.0588,0.0616,
江戸川 (Edogawa),2015-03-06,18:01～19:00,0.0646,0.0586,0.0614,
江戸川 (Edogawa),2015-03-06,17:01～18:00,0.0658,0.0566,0.0613,
江戸川 (Edogawa),2015-03-06,16:01～17:00,0.0642,0.0572,0.0616,
江戸川 (Edogawa),2015-03-06,15:01～16:00,0.0668,0.0589,0.0620,
江戸川 (Edogawa),2015-03-06,14:01～15:00,0.0648,0.0590,0.0616,
江戸川 (Edogawa),2015-03-06,13:01～14:00,0.0656,0.0587,0.0621,
江戸川 (Edogawa),2015-03-06,12:01～13:00,0.0665,0.0581,0.0618,
江戸川 (Edogawa),2015-03-06,11:01～12:00,0.0660,0.0582,0.0618,
江戸川 (Edogawa),2015-03-06,10:01～11:00,0.0651,0.0572,0.0616,
江戸川 (Edogawa),2015-03-06,09:01～10:00,0.0667,0.0583,0.0616,
江戸川 (Edogawa),2015-03-06,08:01～09:00,0.0648,0.0589,0.0616,
江戸川 (Edogawa),2015-03-06,07:01～08:00,0.0651,0.0583,0.0614,
江戸川 (Edogawa),2015-03-06,06:01～07:00,0.0649,0.0577,0.0611,
江戸川 (Edogawa),2015-03-06,05:01～06:00,0.0647,0.0579,0.0616,
江戸川 (Edogawa),2015-03-06,04:01～05:00,0.0645,0.0583,0.0617,
江戸川 (Edogawa),2015-03-06,03:01～04:00,0.0653,0.0575,0.0618,
江戸川 (Edogawa),2015-03-06,02:01～03:00,0.0659,0.0570,0.0615,
江戸川 (Edogawa),2015-03-06,01:01～02:00,0.0651,0.0577,0.0620,
江戸川 (Edogawa),2015-03-06,00:01～01:00,0.0650,0.0581,0.0618,
江戸川 (Edogawa),2015-03-05,23:01～24:00,0.0651,0.0577,0.0615,
江戸川 (Edogawa),2015-03-05,22:01～23:00,0.0655,0.0599,0.0621,
江戸川 (Edogawa),2015-03-05,21:01～22:00,0.0648,0.0582,0.0619,
江戸川 (Edogawa),2015-03-05,20:01～21:00,0.0662,0.0593,0.0623,
江戸川 (Edogawa),2015-03-05,19:01～20:00,0.0651,0.0584,0.0623,
江戸川 (Edogawa),2015-03-05,18:01～19:00,0.0676,0.0589,0.0622,
江戸川 (Edogawa),2015-03-05,17:01～18:00,0.0649,0.0577,0.0615,
江戸川 (Edogawa),2015-03-05,16:01～17:00,0.0654,0.0589,0.0620,
江戸川 (Edogawa),2015-03-05,15:01～16:00,0.0671,0.0596,0.0626,
江戸川 (Edogawa),2015-03-05,14:01～15:00,0.0660,0.0585,0.0624,
江戸川 (Edogawa),2015-03-05,13:01～14:00,0.0654,0.0584,0.0621,
江戸川 (Edogawa),2015-03-05,12:01～13:00,0.0657,0.0582,0.0624,
江戸川 (Edogawa),2015-03-05,11:01～12:00,0.0653,0.0597,0.0624,
江戸川 (Edogawa),2015-03-05,10:01～11:00,0.0667,0.0583,0.0624,
江戸川 (Edogawa),2015-03-05,09:01～10:00,0.0651,0.0589,0.0617,
江戸川 (Edogawa),2015-03-05,08:01～09:00,0.0645,0.0591,0.0616,
江戸川 (Edogawa),2015-03-05,07:01～08:00,0.0659,0.0587,0.0616,
江戸川 (Edogawa),2015-03-05,06:01～07:00,0.0655,0.0577,0.0612,
江戸川 (Edogawa),2015-03-05,05:01～06:00,0.0646,0.0586,0.0613,
江戸川 (Edogawa),2015-03-05,04:01～05:00,0.0646,0.0578,0.0608,
江戸川 (Edogawa),2015-03-05,03:01～04:00,0.0652,0.0578,0.0612,
江戸川 (Edogawa),2015-03-05,02:01～03:00,0.0640,0.0579,0.0610,
江戸川 (Edogawa),2015-03-05,01:01～02:00,0.0657,0.0580,0.0611,
江戸川 (Edogawa),2015-03-05,00:01～01:00,0.0649,0.0582,0.0608,
江戸川 (Edogawa),2015-03-04,23:01～24:00,0.0633,0.0571,0.0609,
江戸川 (Edogawa),2015-03-04,22:01～23:00,0.0641,0.0565,0.0609,
江戸川 (Edogawa),2015-03-04,21:01～22:00,0.0650,0.0568,0.0614,
江戸川 (Edogawa),2015-03-04,20:01～21:00,0.0640,0.0565,0.0608,
江戸川 (Edogawa),2015-03-04,19:01～20:00,0.0639,0.0576,0.0609,
江戸川 (Edogawa),2015-03-04,18:01～19:00,0.0647,0.0581,0.0611,
江戸川 (Edogawa),2015-03-04,17:01～18:00,0.0642,0.0587,0.0612,
江戸川 (Edogawa),2015-03-04,16:01～17:00,0.0649,0.0582,0.0618,
江戸川 (Edogawa),2015-03-04,15:01～16:00,0.0655,0.0588,0.0621,
江戸川 (Edogawa),2015-03-04,14:01～15:00,0.0663,0.0590,0.0621,
江戸川 (Edogawa),2015-03-04,13:01～14:00,0.0643,0.0579,0.0615,
江戸川 (Edogawa),2015-03-04,12:01～13:00,0.0644,0.0566,0.0612,
江戸川 (Edogawa),2015-03-04,11:01～12:00,0.0650,0.0593,0.0618,
江戸川 (Edogawa),2015-03-04,10:01～11:00,0.0650,0.0570,0.0612,
江戸川 (Edogawa),2015-03-04,09:01～10:00,0.0649,0.0565,0.0606,
江戸川 (Edogawa),2015-03-04,08:01～09:00,0.0635,0.0569,0.0610,
江戸川 (Edogawa),2015-03-04,07:01～08:00,0.0656,0.0587,0.0624,
江戸川 (Edogawa),2015-03-04,06:01～07:00,0.0724,0.0610,0.0676,
江戸川 (Edogawa),2015-03-04,05:01～06:00,0.0807,0.0713,0.0745,
江戸川 (Edogawa),2015-03-04,04:01～05:00,0.0818,0.0714,0.0757,
江戸川 (Edogawa),2015-03-04,03:01～04:00,0.0809,0.0707,0.0750,
江戸川 (Edogawa),2015-03-04,02:01～03:00,0.0797,0.0693,0.0733,
江戸川 (Edogawa),2015-03-04,01:01～02:00,0.0743,0.0659,0.0711,
江戸川 (Edogawa),2015-03-04,00:01～01:00,0.0722,0.0641,0.0681,
江戸川 (Edogawa),2015-03-03,23:01～24:00,0.0709,0.0630,0.0661,
江戸川 (Edogawa),2015-03-03,22:01～23:00,0.0681,0.0583,0.0630,
江戸川 (Edogawa),2015-03-03,21:01～22:00,0.0651,0.0579,0.0609,
江戸川 (Edogawa),2015-03-03,20:01～21:00,0.0646,0.0579,0.0612,
江戸川 (Edogawa),2015-03-03,19:01～20:00,0.0645,0.0583,0.0615,
江戸川 (Edogawa),2015-03-03,18:01～19:00,0.0651,0.0581,0.0614,
江戸川 (Edogawa),2015-03-03,17:01～18:00,0.0640,0.0577,0.0609,
江戸川 (Edogawa),2015-03-03,16:01～17:00,0.0640,0.0578,0.0610,
江戸川 (Edogawa),2015-03-03,15:01～16:00,0.0646,0.0575,0.0611,
江戸川 (Edogawa),2015-03-03,14:01～15:00,0.0651,0.0587,0.0619,
江戸川 (Edogawa),2015-03-03,13:01～14:00,0.0667,0.0589,0.0625,
江戸川 (Edogawa),2015-03-03,12:01～13:00,0.0664,0.0589,0.0628,
江戸川 (Edogawa),2015-03-03,11:01～12:00,0.0664,0.0593,0.0621,
江戸川 (Edogawa),2015-03-03,10:01～11:00,0.0649,0.0596,0.0623,
江戸川 (Edogawa),2015-03-03,09:01～10:00,0.0663,0.0593,0.0626,
江戸川 (Edogawa),2015-03-03,08:01～09:00,0.0656,0.0600,0.0628,
江戸川 (Edogawa),2015-03-03,07:01～08:00,0.0664,0.0587,0.0626,
江戸川 (Edogawa),2015-03-03,06:01～07:00,0.0660,0.0584,0.0622,
江戸川 (Edogawa),2015-03-03,05:01～06:00,0.0654,0.0588,0.0621,
江戸川 (Edogawa),2015-03-03,04:01～05:00,0.0654,0.0588,0.0615,
江戸川 (Edogawa),2015-03-03,03:01～04:00,0.0665,0.0590,0.0620,
江戸川 (Edogawa),2015-03-03,02:01～03:00,0.0663,0.0571,0.0618,
江戸川 (Edogawa),2015-03-03,01:01～02:00,0.0655,0.0584,0.0619,
江戸川 (Edogawa),2015-03-03,00:01～01:00,0.0650,0.0587,0.0621,
江戸川 (Edogawa),2015-03-02,23:01～24:00,0.0649,0.0591,0.0619,
江戸川 (Edogawa),2015-03-02,22:01～23:00,0.0654,0.0576,0.0621,
江戸川 (Edogawa),2015-03-02,21:01～22:00,0.0660,0.0585,0.0624,
江戸川 (Edogawa),2015-03-02,20:01～21:00,0.0650,0.0581,0.0619,
江戸川 (Edogawa),2015-03-02,19:01～20:00,0.0655,0.0578,0.0621,
江戸川 (Edogawa),2015-03-02,18:01～19:00,0.0654,0.0598,0.0623,
江戸川 (Edogawa),2015-03-02,17:01～18:00,0.0664,0.0582,0.0622,
江戸川 (Edogawa),2015-03-02,16:01～17:00,0.0660,0.0598,0.0622,
江戸川 (Edogawa),2015-03-02,15:01～16:00,0.0653,0.0590,0.0620,
江戸川 (Edogawa),2015-03-02,14:01～15:00,0.0661,0.0593,0.0623,
江戸川 (Edogawa),2015-03-02,13:01～14:00,0.0657,0.0597,0.0624,
江戸川 (Edogawa),2015-03-02,12:01～13:00,0.0648,0.0588,0.0620,
江戸川 (Edogawa),2015-03-02,11:01～12:00,0.0641,0.0566,0.0615,
江戸川 (Edogawa),2015-03-02,10:01～11:00,0.0665,0.0589,0.0620,
江戸川 (Edogawa),2015-03-02,09:01～10:00,0.0656,0.0572,0.0615,
江戸川 (Edogawa),2015-03-02,08:01～09:00,0.0662,0.0557,0.0617,
江戸川 (Edogawa),2015-03-02,07:01～08:00,0.0640,0.0574,0.0609,
江戸川 (Edogawa),2015-03-02,06:01～07:00,0.0653,0.0579,0.0608,
江戸川 (Edogawa),2015-03-02,05:01～06:00,0.0659,0.0576,0.0609,
江戸川 (Edogawa),2015-03-02,04:01～05:00,0.0643,0.0574,0.0608,
江戸川 (Edogawa),2015-03-02,03:01～04:00,0.0644,0.0578,0.0613,
江戸川 (Edogawa),2015-03-02,02:01～03:00,0.0647,0.0581,0.0611,
江戸川 (Edogawa),2015-03-02,01:01～02:00,0.0646,0.0570,0.0609,
江戸川 (Edogawa),2015-03-02,00:01～01:00,0.0653,0.0587,0.0620,
